Regional Weather Roundup
Issued by NWS

Home | Current Version | Previous Version | Text Only | Print | Product List | Glossary On
Versions: 1 2 3 4 5 6 7 8 9 10 11 12 13 14 15 16 17 18 19 20 21 22 23 24 25 26 27
000
ASUS44 KJAN 250420
RWRMS

MISSISSIPPI HOURLY WEATHER ROUNDUP
NATIONAL WEATHER SERVICE JACKSON MS
1100 PM CDT WED AUG 24 2016

NOTE: "FAIR: INDICATES FEW OR NO CLOUDS BELOW 12,000 FEET WITH NO
SIGNIFICANT WEATHER AND/OR OBSTRUCTIONS TO VISIBILITY.

MSZ001>002-007>008-010>013-018>021-025>028-034>036-250500-
NORTHWEST MISSISSIPPI

CITY           SKY/WX    TMP DP  RH WIND       PRES   REMARKS
CLARKSDALE     CLEAR     81  81 100 CALM      30.09S HX  91
GREENWOOD      CLEAR     79  75  87 CALM      30.09F
GREENVILLE     MOCLDY    82  76  81 S5        30.09S
OXFORD         FAIR      75  73  94 CALM      30.12F
TUNICA         CLEAR     77  73  88 S5        30.08F
$$

MSZ003>006-009-014>017-022>024-029>033-037>039-250500-
NORTHEAST MISSISSIPPI

CITY           SKY/WX    TMP DP  RH WIND       PRES   REMARKS
COLUMBUS AFB   CLEAR     78  75  92 S1        30.10F
CORINTH        FAIR      77  75  94 CALM      30.10F
GOLDN TRIANGLE CLEAR     82  72  69 S5        30.10F
TUPELO         CLEAR     80  73  79 CALM      30.11F
$$

MSZ040-058-250500-
CENTRAL MISSISSIPPI

CITY           SKY/WX    TMP DP  RH WIND       PRES   REMARKS
JACKSON INTL   PTCLDY    78  75  90 CALM      30.10F
JACKSON HAWKNS PTCLDY    77  74  90 CALM      30.11F
MERIDIAN KEY   MOCLDY    82  76  81 S5        30.13F
MERIDIAN NAS   MOCLDY    82  74  76 SE6       30.13F
$$

MSZ059>079-250500-
SOUTH MISSISSIPPI

CITY           SKY/WX    TMP DP  RH WIND       PRES   REMARKS
BROOKHAVEN     FAIR     N/A N/A N/A CALM      30.13F
HATTIESBURG    MOCLDY    78  74  87 CALM      30.13F
MCCOMB         CLOUDY    77  74  90 CALM      30.11F
NATCHEZ        CLOUDY    79  72  78 SE5       30.10F
PINE BELT      PTCLDY    75  73  94 S3        30.14F
$$

MSZ080>082-250500-
COASTAL MISSISSIPPI

CITY           SKY/WX    TMP DP  RH WIND       PRES   REMARKS
BILOXI         MOCLDY    79  78  98 NE7       30.11S
PASCAGOULA     PTCLDY    78  78 100 CALM      30.12S
GULFPORT       CLOUDY    78  76  93 NE3       30.11S
$$

LAZ007>009-015>016-023>026-250500-
NORTHEAST LOUISIANA

CITY           SKY/WX    TMP DP  RH WIND       PRES   REMARKS
BASTROP        FAIR      78  77  98 CALM      30.10S
TALLULAH/VBURG CLOUDY    78  75  90 CALM      30.10S FOG
$$




USA.gov is the U.S. government's official web portal to all federal, state and local government web resources and services.